"2009-07-23 00:00:00",1086049,6.601,280.9,3.083,0.327,20.56,110.0312,24.97,26.08,23.19,0,111.3,13.1,25.81,242.9
"2009-07-23 00:00:30",1086050,5.849,288.8,2.327,0.215,20.3,110.0299,24.97,26.05,22.5,0,111.3,13.1,25.81,250.8
"2009-07-23 00:01:00",1086051,5.769,284.6,4.619,0.145,20.4,110.0084,24.92,26.03,21.92,0,111.3,13.1,25.75,246.6
"2009-07-23 00:01:30",1086052,6.459,274.5,3.306,0.423,20.45,110.0006,24.9,26.01,21.36,0,111.3,13.1,25.73,236.5
"2009-07-23 00:02:00",1086053,6.908,272.2,3.934,0.219,20.32,109.994,24.88,25.98,21.87,0,111.3,13.1,25.72,234.2
"2009-07-23 00:02:30",1086054,6.256,278.1,3.915,0.707,20.42,109.9729,24.82,25.95,22.41,0,111.3,13.1,25.66,240.1
"2009-07-23 00:03:00",1086055,5.757,274.1,3.108,0.322,20.35,109.9747,24.83,25.94,22.5,0,111.3,13.1,25.67,236.1
"2009-07-23 00:03:30",1086056,5.96,284.5,1.821,0.365,20.32,109.9572,24.78,25.9,22.57,0,111.3,13.1,25.62,246.5
"2009-07-23 00:04:00",1086057,5.801,286.5,6.095,0.305,20.41,109.9489,24.76,25.88,21.53,0,111.3,13.1,25.60,248.5
"2009-07-23 00:04:30",1086058,4.903,291.8,4.821,0.389,20.36,109.9479,24.76,25.86,20.52,0,111.3,13.11,25.60,253.8
"2009-07-23 00:05:00",1086059,5.174,280.5,2.339,0.288,20.35,109.9426,24.75,25.83,20.42,0,111.3,13.11,25.59,242.5
"2009-07-23 00:05:30",1086060,5.74,279,6.132,0.363,20.36,109.9274,24.71,25.8,20.84,0,111.3,13.11,25.55,241.0
"2009-07-23 00:06:00",1086061,5.02,275,4.169,0.258,20.45,109.9178,24.68,25.77,20.11,0,111.3,13.1,25.52,237.0
"2009-07-23 00:06:30",1086062,5.709,282.8,3.036,0.375,20.32,109.9194,24.69,25.76,20.62,0,111.3,13.11,25.53,244.8
"2009-07-23 00:07:00",1086063,5.607,277.2,3.28,0.217,20.29,109.9207,24.69,25.74,21.07,0,111.3,13.11,25.53,239.2
"2009-07-23 00:07:30",1086064,5.554,280.2,2.813,0.476,20.32,109.9166,24.68,25.73,21.84,0,111.3,13.11,25.52,242.2
"2009-07-23 00:08:00",1086065,5.169,277.8,4.214,0.415,20.33,109.9095,24.66,25.72,23.11,0,111.3,13.11,25.50,239.8
"2009-07-23 00:08:30",1086066,6.467,275.2,3.863,0.623,20.32,109.8972,24.63,25.7,22.77,0,111.3,13.11,25.47,237.2
"2009-07-23 00:09:00",1086067,6.693,282.1,1.925,0.254,20.33,109.897,24.63,25.67,22.63,0,111.3,13.11,25.47,244.1
"2009-07-23 00:09:30",1086068,6.437,283.6,5.645,0.442,20.32,109.8934,24.62,25.66,23.23,0,111.3,13.11,25.46,245.6
"2009-07-23 00:10:00",1086069,5.642,281.2,4.629,0.376,20.31,109.89,24.61,25.66,23.51,0,111.3,13.11,25.45,243.2
"2009-07-23 00:10:30",1086070,6.097,277.2,1.468,0.219,20.36,109.8897,24.61,25.65,22.88,0,111.3,13.11,25.45,239.2
"2009-07-23 00:11:00",1086071,6.785,275.7,2.545,0.395,20.22,109.8897,24.61,25.64,23.01,0,111.3,13.11,25.45,237.7
"2009-07-23 00:11:30",1086072,6.877,275.9,2.973,0.353,20.28,109.8892,24.61,25.63,23.35,0,111.3,13.11,25.45,237.9
"2009-07-23 00:12:00",1086073,6.576,275.2,2.028,0.378,20.32,109.8726,24.57,25.61,22.71,0,111.3,13.11,25.40,237.2
"2009-07-23 00:12:30",1086074,6.745,277.2,1.69,0.432,20.34,109.8636,24.54,25.61,22.52,0,111.3,13.11,25.38,239.2
"2009-07-23 00:13:00",1086075,6.854,280.7,4.166,0.445,20.36,109.8575,24.53,25.59,23.59,0,111.3,13.1,25.37,242.7
"2009-07-23 00:13:30",1086076,6.523,282.6,2.345,0.587,20.35,109.8561,24.52,25.55,23.11,0,111.3,13.1,25.36,244.6
"2009-07-23 00:14:00",1086077,6.605,279.8,1.912,0.362,20.28,109.8552,24.52,25.55,22.88,0,111.3,13.1,25.36,241.8
"2009-07-23 00:14:30",1086078,6.772,283.8,3.6,0.418,20.24,109.8395,24.48,25.53,22.89,0,111.3,13.1,25.32,245.8
"2009-07-23 00:15:00",1086079,6.8,277.6,2.524,0.269,20.33,109.8303,24.46,25.51,22.21,0,111.3,13.1,25.30,239.6
"2009-07-23 00:15:30",1086080,7.01,276.4,2.205,0.242,20.36,109.8236,24.44,25.5,21.8,0,111.3,13.1,25.28,238.4
"2009-07-23 00:16:00",1086081,6.894,277.8,2.265,0.282,20.35,109.8286,24.45,25.49,21.75,0,111.3,13.1,25.29,239.8
"2009-07-23 00:16:30",1086082,6.934,281.1,2.383,0.39,20.27,109.8223,24.44,25.49,22.9,0,111.3,13.1,25.28,243.1
"2009-07-23 00:17:00",1086083,7.098,275.2,4.774,0.397,20.37,109.8076,24.4,25.46,23.06,0,111.3,13.1,25.24,237.2
"2009-07-23 00:17:30",1086084,7.197,279.7,4.93,0.584,20.35,109.8026,24.39,25.45,23.02,0,111.3,13.1,25.22,241.7
"2009-07-23 00:18:00",1086085,6.996,280.6,2.359,0.645,20.45,109.798,24.38,25.44,23.03,0,111.3,13.1,25.21,242.6
"2009-07-23 00:18:30",1086086,6.8,278.3,3.842,0.442,20.45,109.798,24.38,25.43,22.89,0,111.3,13.1,25.21,240.3
"2009-07-23 00:19:00",1086087,6.189,281.2,2.978,0.458,20.42,109.7968,24.37,25.38,22.71,0,111.3,13.11,25.21,243.2
"2009-07-23 00:19:30",1086088,6.811,273.7,3.17,0.526,20.39,109.7926,24.36,25.37,22.56,0,111.3,13.11,25.20,235.7
"2009-07-23 00:20:00",1086089,7.112,274,2.614,0.393,20.47,109.7851,24.34,25.35,22.6,0,111.3,13.11,25.18,236.0
"2009-07-23 00:20:30",1086090,6.801,271.9,2.382,0.357,20.42,109.7775,24.32,25.36,21.95,0,111.3,13.11,25.16,233.9
"2009-07-23 00:21:00",1086091,6.433,273.8,1.202,0.17,20.42,109.7733,24.31,25.36,21.65,0,111.3,13.11,25.15,235.8
"2009-07-23 00:21:30",1086092,6.522,275.5,3.129,0.157,20.43,109.7727,24.31,25.35,20.77,0,111.3,13.11,25.15,237.5
"2009-07-23 00:22:00",1086093,6.255,280.4,1.872,0.236,20.36,109.771,24.31,25.33,22.08,0,111.3,13.11,25.14,242.4
"2009-07-23 00:22:30",1086094,6.52,275.9,1.081,0.285,20.42,109.7677,24.3,25.33,21.14,0,111.3,13.11,25.13,237.9
"2009-07-23 00:23:00",1086095,6.579,276.5,0.8,0.143,20.5,109.7643,24.29,25.32,20.37,0,111.3,13.11,25.13,238.5
"2009-07-23 00:23:30",1086096,6.348,277.8,1.279,0.087,20.52,109.7643,24.29,25.33,20.25,0,111.3,13.11,25.13,239.8
"2009-07-23 00:24:00",1086097,6.209,277.3,0.58,0.088,20.54,109.7643,24.29,25.31,20.29,0,111.3,13.11,25.13,239.3
"2009-07-23 00:24:30",1086098,6.761,276.7,3.146,0.39,20.39,109.7643,24.29,25.31,21.06,0,111.3,13.11,25.13,238.7
"2009-07-23 00:25:00",1086099,6.029,275.5,2.076,0.241,20.45,109.7643,24.29,25.31,21.25,0,111.3,13.11,25.13,237.5
"2009-07-23 00:25:30",1086100,6.461,275.1,1.777,0.241,20.31,109.7643,24.29,25.31,22.58,0,111.3,13.11,25.13,237.1
"2009-07-23 00:26:00",1086101,6.751,273.3,1.517,0.322,20.44,109.7643,24.29,25.31,20.65,0,111.3,13.11,25.13,235.3
"2009-07-23 00:26:30",1086102,6.709,278.1,3.002,0.527,20.34,109.7643,24.29,25.31,21.49,0,111.3,13.11,25.13,240.1
"2009-07-23 00:27:00",1086103,6.825,276.4,1.965,0.32,20.37,109.7643,24.29,25.31,22.08,0,111.3,13.11,25.13,238.4
"2009-07-23 00:27:30",1086104,6.566,278.1,2.348,0.26,20.36,109.7643,24.29,25.31,22.22,0,111.3,13.11,25.13,240.1
"2009-07-23 00:28:00",1086105,6.552,278.3,4.81,0.35,20.44,109.7643,24.29,25.31,22.08,0,111.3,13.11,25.13,240.3
"2009-07-23 00:28:30",1086106,6.633,272.9,1.471,0.266,20.42,109.7643,24.29,25.32,21.43,0,111.3,13.11,25.13,234.9
"2009-07-23 00:29:00",1086107,6.796,273.3,1.301,0.291,20.38,109.7643,24.29,25.29,21.66,0,111.3,13.11,25.13,235.3
"2009-07-23 00:29:30",1086108,6.687,273.8,0.737,0.121,20.52,109.7643,24.29,25.31,20.94,0,111.3,13.11,25.13,235.8
"2009-07-23 00:30:00",1086109,6.642,272.1,1.057,0.188,20.52,109.7643,24.29,25.31,21.1,0,111.3,13.11,25.13,234.1
"2009-07-23 00:30:30",1086110,6.547,271.3,1.629,0.226,20.48,109.7643,24.29,25.31,21.76,0,111.3,13.1,25.13,233.3
"2009-07-23 00:31:00",1086111,6.436,271.3,1.814,0.319,20.5,109.7643,24.29,25.29,21.72,0,111.3,13.1,25.13,233.3
"2009-07-23 00:31:30",1086112,6.744,271.9,1.731,0.18,20.52,109.7643,24.29,25.3,22.08,0,111.3,13.1,25.13,233.9
"2009-07-23 00:32:00",1086113,6.045,280.4,5.017,0.492,20.51,109.7643,24.29,25.3,22.7,0,111.3,13.1,25.13,242.4
"2009-07-23 00:32:30",1086114,6.045,274.3,3.204,0.189,20.56,109.7643,24.29,25.31,23.29,0,111.2,13.1,25.13,236.3
"2009-07-23 00:33:00",1086115,6.248,274.3,1.673,0.212,20.55,109.7646,24.29,25.3,22.57,0,111.3,13.1,25.13,236.3
"2009-07-23 00:33:30",1086116,6.313,270,2.718,0.27,20.54,109.7658,24.29,25.3,23.44,0,111.3,13.1,25.13,232.0
"2009-07-23 00:34:00",1086117,6.019,275.3,2.538,0.16,20.58,109.7649,24.29,25.31,22.23,0,111.2,13.1,25.13,237.3
"2009-07-23 00:34:30",1086118,5.959,272.6,1.004,0.226,20.5,109.7658,24.29,25.32,23.48,0,111.2,13.1,25.13,234.6
"2009-07-23 00:35:00",1086119,5.533,273.1,1.986,0.284,20.53,109.768,24.3,25.31,23.38,0,111.2,13.1,25.14,235.1
"2009-07-23 00:35:30",1086120,6.262,271.7,1.362,0.157,20.48,109.772,24.31,25.3,21.95,0,111.3,13.11,25.15,233.7
"2009-07-23 00:36:00",1086121,6.479,271.2,0.76,0.232,20.49,109.776,24.32,25.32,22.46,0,111.3,13.11,25.16,233.2
"2009-07-23 00:36:30",1086122,6.263,273.3,2.786,0.282,20.46,109.7783,24.32,25.33,23.68,0,111.2,13.11,25.16,235.3
"2009-07-23 00:37:00",1086123,5.979,271.5,1.166,0.176,20.6,109.7821,24.33,25.33,22.3,0,111.2,13.11,25.17,233.5
"2009-07-23 00:37:30",1086124,6.015,272.4,1.471,0.222,20.61,109.7881,24.35,25.32,22.32,0,111.2,13.11,25.19,234.4
"2009-07-23 00:38:00",1086125,6.045,271.6,1.384,0.207,20.58,109.7879,24.35,25.34,22.27,0,111.2,13.11,25.19,233.6
"2009-07-23 00:38:30",1086126,5.675,270.6,1.645,0.182,20.59,109.7891,24.35,25.34,21.36,0,111.2,13.11,25.19,232.6
"2009-07-23 00:39:00",1086127,4.935,275.2,2.451,0.156,20.69,109.7911,24.36,25.35,21.02,0,111.2,13.11,25.19,237.2
"2009-07-23 00:39:30",1086128,5.149,275.6,2.849,0.381,20.54,109.7969,24.37,25.35,21.76,0,111.2,13.11,25.21,237.6
"2009-07-23 00:40:00",1086129,5.063,277.9,1.975,0.201,20.5,109.8075,24.4,25.35,23.33,0,111.2,13.11,25.24,239.9
"2009-07-23 00:40:30",1086130,4.802,286.7,4.104,0.283,20.48,109.812,24.41,25.37,23.62,0,111.2,13.11,25.25,248.7
"2009-07-23 00:41:00",1086131,5.107,278.2,2.049,0.187,20.59,109.8177,24.43,25.37,23.45,0,111.2,13.11,25.26,240.2
"2009-07-23 00:41:30",1086132,5.063,281.3,1.41,0.185,20.58,109.819,24.43,25.38,22.38,0,111.2,13.11,25.27,243.3
"2009-07-23 00:42:00",1086133,5.015,284.3,6.164,0.321,20.55,109.8199,24.43,25.38,22.25,0,111.2,13.11,25.27,246.3
"2009-07-23 00:42:30",1086134,4.915,288.2,2.779,0.386,20.53,109.8205,24.43,25.39,23.05,0,111.2,13.11,25.27,250.2
"2009-07-23 00:43:00",1086135,4.664,284.2,2.702,0.192,20.52,109.8232,24.44,25.41,23.35,0,111.2,13.11,25.28,246.2
"2009-07-23 00:43:30",1086136,5.009,287.3,2.061,0.133,20.48,109.824,24.44,25.42,23.01,0,111.2,13.11,25.28,249.3
"2009-07-23 00:44:00",1086137,4.585,286.4,2.752,0.176,20.59,109.8256,24.45,25.42,21.95,0,111.2,13.11,25.28,248.4
"2009-07-23 00:44:30",1086138,4.334,294.4,4.083,0.293,20.56,109.8323,24.46,25.42,22.72,0,111.2,13.11,25.30,256.4
"2009-07-23 00:45:00",1086139,4.387,290,5.492,0.232,20.39,109.8337,24.47,25.44,23.02,0,111.2,13.11,25.30,252.0
"2009-07-23 00:45:30",1086140,4.407,283.4,2.736,0.34,20.52,109.8363,24.47,25.44,23.59,0,111.2,13.11,25.31,245.4
"2009-07-23 00:46:00",1086141,4.049,287.6,4.328,0.344,20.52,109.8409,24.49,25.46,23.25,0,111.2,13.12,25.32,249.6
"2009-07-23 00:46:30",1086142,4.149,284.7,4.68,0.351,20.51,109.8451,24.5,25.45,23.55,0,111.2,13.11,25.33,246.7
"2009-07-23 00:47:00",1086143,4.164,277.8,2.758,0.288,20.48,109.852,24.51,25.46,23.31,0,111.2,13.11,25.35,239.8
"2009-07-23 00:47:30",1086144,4.412,280.4,3.697,0.246,20.56,109.8534,24.52,25.46,22.6,0,111.2,13.11,25.36,242.4
"2009-07-23 00:48:00",1086145,4.399,286.4,2.968,0.215,20.53,109.8568,24.53,25.47,21.92,0,111.2,13.11,25.36,248.4
"2009-07-23 00:48:30",1086146,4.677,283.9,3.452,0.319,20.55,109.8588,24.53,25.49,22.99,0,111.2,13.1,25.37,245.9
"2009-07-23 00:49:00",1086147,4.54,282.2,4.914,0.401,20.56,109.8588,24.53,25.49,22.81,0,111.2,13.1,25.37,244.2
"2009-07-23 00:49:30",1086148,4.613,276.3,2.833,0.244,20.56,109.8591,24.53,25.48,22.64,0,111.2,13.1,25.37,238.3
"2009-07-23 00:50:00",1086149,4.198,276.7,3.581,0.313,20.58,109.8594,24.53,25.48,22.74,0,111.2,13.1,25.37,238.7
"2009-07-23 00:50:30",1086150,4.233,284.8,1.608,0.345,20.59,109.8591,24.53,25.49,22.82,0,111.2,13.1,25.37,246.8
"2009-07-23 00:51:00",1086151,4.825,276.8,4.714,0.424,20.6,109.8594,24.53,25.5,22.87,0,111.2,13.1,25.37,238.8
"2009-07-23 00:51:30",1086152,5.125,283.3,3.027,0.184,20.56,109.8594,24.53,25.5,22.46,0,111.2,13.1,25.37,245.3
"2009-07-23 00:52:00",1086153,5.137,288.1,4.032,0.178,20.58,109.8591,24.53,25.51,22.42,0,111.2,13.1,25.37,250.1
"2009-07-23 00:52:30",1086154,4.9,288.8,2.616,0.243,20.64,109.8591,24.53,25.51,20.78,0,111.2,13.1,25.37,250.8
"2009-07-23 00:53:00",1086155,5.03,289.1,2.243,0.173,20.58,109.8594,24.53,25.5,21.22,0,111.2,13.11,25.37,251.1
"2009-07-23 00:53:30",1086156,4.798,284.6,6.264,0.206,20.6,109.8602,24.54,25.51,22.55,0,111.2,13.11,25.37,246.6
"2009-07-23 00:54:00",1086157,5.285,281.9,1.305,0.122,20.66,109.8597,24.53,25.52,20.23,0,111.2,13.11,25.37,243.9
"2009-07-23 00:54:30",1086158,5.16,281.4,0.823,0.141,20.74,109.8597,24.53,25.52,19.41,0,111.2,13.11,25.37,243.4
"2009-07-23 00:55:00",1086159,5.558,281.3,0.952,0.06,20.67,109.8597,24.53,25.52,19.18,0,111.2,13.11,25.37,243.3
"2009-07-23 00:55:30",1086160,5.68,277.5,2.647,0.299,20.71,109.86,24.53,25.53,20.08,0,111.2,13.11,25.37,239.5
"2009-07-23 00:56:00",1086161,5.205,277.9,3.479,0.32,20.65,109.8612,24.54,25.54,20.91,0,111.2,13.11,25.38,239.9
"2009-07-23 00:56:30",1086162,5.077,280,1.865,0.161,20.65,109.8626,24.54,25.53,21.12,0,111.2,13.11,25.38,242.0
"2009-07-23 00:57:00",1086163,4.719,285.8,1.984,0.244,20.64,109.8617,24.54,25.53,21,0,111.2,13.11,25.38,247.8
"2009-07-23 00:57:30",1086164,4.216,280.1,6.144,0.225,20.63,109.8671,24.55,25.54,22.79,0,111.2,13.11,25.39,242.1
"2009-07-23 00:58:00",1086165,4.713,282.4,2.244,0.218,20.79,109.8668,24.55,25.55,21.12,0,111.2,13.12,25.39,244.4
"2009-07-23 00:58:30",1086166,4.567,283.4,2.106,0.118,20.72,109.8701,24.56,25.53,19.95,0,111.2,13.12,25.40,245.4
"2009-07-23 00:59:00",1086167,4.554,278.7,2.162,0.154,20.69,109.8701,24.56,25.54,21.33,0,111.2,13.11,25.40,240.7
"2009-07-23 00:59:30",1086168,4.338,278.6,0.939,0.082,20.83,109.8728,24.57,25.53,19.87,0,111.2,13.12,25.41,240.6
"2009-07-23 01:00:00",1086169,4.612,276.8,1.799,0.169,20.7,109.8734,24.57,25.54,20.45,0,111.2,13.11,25.41,238.8
"2009-07-23 01:00:30",1086170,3.989,278,3.075,0.285,20.63,109.8751,24.57,25.55,21.33,0,111.2,13.12,25.41,240.0
"2009-07-23 01:01:00",1086171,4.652,281,5.293,0.231,20.61,109.8762,24.58,25.56,22.09,0,111.2,13.12,25.41,243.0
"2009-07-23 01:01:30",1086172,4.184,283.9,1.753,0.236,20.68,109.8874,24.61,25.56,22.03,0,111.2,13.12,25.44,245.9
"2009-07-23 01:02:00",1086173,3.977,279.1,5.086,0.187,20.65,109.8956,24.63,25.57,22.41,0,111.2,13.11,25.46,241.1
"2009-07-23 01:02:30",1086174,3.281,275.1,7.378,0.208,20.57,109.8938,24.62,25.57,23.77,0,111.2,13.12,25.46,237.1
"2009-07-23 01:03:00",1086175,3.274,285.7,3.418,0.344,20.58,109.8783,24.58,25.57,24.88,0,111.2,13.12,25.42,247.7
"2009-07-23 01:03:30",1086176,3.047,288.1,8.44,0.212,20.57,109.8783,24.58,25.55,25.3,0,111.2,13.12,25.42,250.1
"2009-07-23 01:04:00",1086177,3.264,282.4,7.285,0.358,20.6,109.8884,24.61,25.56,25.19,0,111.2,13.12,25.45,244.4
"2009-07-23 01:04:30",1086178,4.267,272.3,1.355,0.118,20.68,109.8968,24.63,25.56,21.6,0,111.2,13.11,25.47,234.3
"2009-07-23 01:05:00",1086179,4.049,271.8,2.121,0.21,20.71,109.9011,24.64,25.56,20.54,0,111.2,13.11,25.48,233.8
"2009-07-23 01:05:30",1086180,3.882,276.4,1.177,0.105,20.8,109.9011,24.64,25.57,20.22,0,111.2,13.1,25.48,238.4
"2009-07-23 01:06:00",1086181,4.003,271.5,1.627,0.112,20.8,109.9002,24.64,25.58,19.82,0,111.2,13.1,25.48,233.5
"2009-07-23 01:06:30",1086182,3.871,280,7.603,0.28,20.64,109.9014,24.64,25.58,22.23,0,111.2,13.1,25.48,242.0
"2009-07-23 01:07:00",1086183,2.972,287.5,6.085,0.577,20.63,109.8999,24.64,25.6,24.32,0,111.2,13.1,25.48,249.5
"2009-07-23 01:07:30",1086184,3.334,286.4,4.94,0.467,20.64,109.9014,24.64,25.61,24.71,0,111.2,13.1,25.48,248.4
"2009-07-23 01:08:00",1086185,3.779,273.2,4.9,0.197,20.65,109.902,24.64,25.63,24.16,0,111.2,13.1,25.48,235.2
"2009-07-23 01:08:30",1086186,3.795,268.6,3.284,0.316,20.59,109.9025,24.64,25.63,23.83,0,111.2,13.1,25.48,230.6
"2009-07-23 01:09:00",1086187,3.909,270.7,2.963,0.214,20.67,109.9042,24.65,25.62,23.43,0,111.2,13.1,25.49,232.7
"2009-07-23 01:09:30",1086188,4.06,270.8,2.863,0.28,20.82,109.9059,24.65,25.63,21.59,0,111.2,13.11,25.49,232.8
"2009-07-23 01:10:00",1086189,3.995,270.2,1.871,0.186,20.83,109.9082,24.66,25.63,20.25,0,111.2,13.11,25.50,232.2
"2009-07-23 01:10:30",1086190,3.942,268.7,1.883,0.17,20.86,109.9082,24.66,25.64,19.62,0,111.2,13.11,25.50,230.7
"2009-07-23 01:11:00",1086191,3.605,274.6,3.25,0.208,20.91,109.9096,24.66,25.64,19.34,0,111.2,13.12,25.50,236.6
"2009-07-23 01:11:30",1086192,3.105,277.3,2.173,0.203,20.98,109.9107,24.67,25.64,19.27,0,111.2,13.12,25.50,239.3
"2009-07-23 01:12:00",1086193,3.026,279.3,5.626,0.2,20.9,109.9161,24.68,25.64,19.26,0,111.2,13.12,25.52,241.3
"2009-07-23 01:12:30",1086194,3.718,273.2,1.65,0.178,20.77,109.9211,24.69,25.65,19.25,0,111.2,13.12,25.53,235.2
"2009-07-23 01:13:00",1086195,3.697,270.8,1.196,0.146,20.84,109.9335,24.72,25.66,19.11,0,111.2,13.12,25.56,232.8
"2009-07-23 01:13:30",1086196,3.758,271.3,1.927,0.118,20.85,109.9354,24.73,25.65,19.01,0,111.2,13.12,25.57,233.3
"2009-07-23 01:14:00",1086197,3.565,273.3,3.102,0.111,20.88,109.936,24.73,25.68,19.1,0,111.2,13.12,25.57,235.3
"2009-07-23 01:14:30",1086198,3.143,272.8,2.862,0.246,20.83,109.936,24.73,25.68,19.12,0,111.2,13.12,25.57,234.8
"2009-07-23 01:15:00",1086199,3.267,269.8,3.857,0.24,20.64,109.9357,24.73,25.69,20.91,0,111.2,13.12,25.57,231.8
"2009-07-23 01:15:30",1086200,3.225,272.5,3.171,0.165,20.92,109.9397,24.74,25.69,20.63,0,111.2,13.12,25.58,234.5
"2009-07-23 01:16:00",1086201,2.843,272.4,1.769,0.225,20.91,109.9439,24.75,25.72,19.3,0,111.2,13.12,25.59,234.4
"2009-07-23 01:16:30",1086202,3.034,269.2,2.699,0.388,20.86,109.9486,24.76,25.71,19.31,0,111.2,13.12,25.60,231.2
"2009-07-23 01:17:00",1086203,3.026,270.5,2.839,0.216,20.83,109.9652,24.81,25.72,19.55,0,111.2,13.12,25.64,232.5
"2009-07-23 01:17:30",1086204,3.503,272.7,2.498,0.177,20.73,109.9691,24.82,25.74,20.27,0,111.2,13.12,25.65,234.7
"2009-07-23 01:18:00",1086205,3.329,272.6,2.549,0.278,20.84,109.9694,24.82,25.76,20.31,0,111.2,13.12,25.65,234.6
"2009-07-23 01:18:30",1086206,3.068,271.6,3.193,0.211,20.79,109.9697,24.82,25.77,20.36,0,111.2,13.12,25.66,233.6
"2009-07-23 01:19:00",1086207,3.065,274,3.341,0.177,20.84,109.9705,24.82,25.77,20.62,0,111.2,13.12,25.66,236.0
"2009-07-23 01:19:30",1086208,2.752,277.2,5.751,0.289,20.74,109.9767,24.83,25.8,22.18,0,111.2,13.12,25.67,239.2
"2009-07-23 01:20:00",1086209,2.041,276,5.637,0.227,20.68,109.9851,24.86,25.79,22.59,0,111.2,13.12,25.69,238.0
"2009-07-23 01:20:30",1086210,2.346,271.7,6.689,0.183,20.69,109.9918,24.87,25.81,23.98,0,111.2,13.12,25.71,233.7
"2009-07-23 01:21:00",1086211,3.038,277.7,3.58,0.076,20.7,109.9969,24.89,25.83,23.33,0,111.2,13.12,25.73,239.7
"2009-07-23 01:21:30",1086212,2.665,286.9,4.102,0.193,20.7,109.9997,24.89,25.84,24.17,0,111.2,13.11,25.73,248.9
"2009-07-23 01:22:00",1086213,2.612,290.8,7.231,0.182,20.81,110.0028,24.9,25.85,24.28,0,111.2,13.11,25.74,252.8
"2009-07-23 01:22:30",1086214,2.679,284.3,2.613,0.058,20.87,110.0034,24.9,25.85,22.88,0,111.2,13.11,25.74,246.3
"2009-07-23 01:23:00",1086215,2.845,286.6,2.278,0.149,20.82,110.0034,24.9,25.86,22.51,0,111.2,13.11,25.74,248.6
"2009-07-23 01:23:30",1086216,2.783,292.4,6.289,0.206,20.84,110.0034,24.9,25.87,22.72,0,111.2,13.11,25.74,254.4
"2009-07-23 01:24:00",1086217,2.654,280.1,6.033,0.206,20.97,110.0034,24.9,25.86,21.59,0,111.2,13.11,25.74,242.1
"2009-07-23 01:24:30",1086218,2.822,279.6,1.823,0.22,21.03,110.0034,24.9,25.89,20.51,0,111.2,13.11,25.74,241.6
"2009-07-23 01:25:00",1086219,2.617,282.5,2.572,0.145,21.08,110.0034,24.9,25.88,19.57,0,111.2,13.11,25.74,244.5
"2009-07-23 01:25:30",1086220,2.292,280.8,3.453,0.147,21.06,110.0036,24.9,25.88,19.27,0,111.2,13.11,25.74,242.8
"2009-07-23 01:26:00",1086221,2.24,280.1,7.575,0.129,21.05,110.0048,24.91,25.89,19.26,0,111.2,13.11,25.75,242.1
"2009-07-23 01:26:30",1086222,2.05,282.8,4.057,0.1,21.15,110.0079,24.91,25.89,19.35,0,111.2,13.11,25.75,244.8
"2009-07-23 01:27:00",1086223,1.976,285.4,7.049,0.149,21.16,110.0079,24.91,25.89,19.2,0,111.2,13.11,25.75,247.4
"2009-07-23 01:27:30",1086224,2.313,274.6,4.072,0.387,21.12,110.0093,24.92,25.9,19.03,0,111.2,13.11,25.76,236.6
"2009-07-23 01:28:00",1086225,2.6,275.7,8.41,0.134,20.97,110.0093,24.92,25.9,19.56,0,111.2,13.11,25.76,237.7
"2009-07-23 01:28:30",1086226,2.501,273.4,3.968,0.275,20.85,110.0112,24.92,25.92,22.88,0,111.2,13.12,25.76,235.4
"2009-07-23 01:29:00",1086227,2.411,267,4.163,0.338,20.9,110.0087,24.92,25.93,22.98,0,111.2,13.12,25.76,229.0
"2009-07-23 01:29:30",1086228,2.253,278,6.884,0.16,20.85,110.007,24.91,25.92,23.1,0,111.2,13.12,25.75,240.0
"2009-07-23 01:30:00",1086229,2.695,279.6,5.709,0.193,20.99,110.007,24.91,25.92,22.86,0,111.2,13.12,25.75,241.6
"2009-07-23 01:30:30",1086230,2.787,279.3,1.924,0.088,21.05,110.0053,24.91,25.93,21.43,0,111.2,13.12,25.75,241.3
"2009-07-23 01:31:00",1086231,2.72,278.1,2.273,0.094,21.05,110.0042,24.91,25.91,21.15,0,111.2,13.12,25.74,240.1
"2009-07-23 01:31:30",1086232,2.899,276.6,2.998,0.146,21.05,110.0036,24.9,25.9,21.4,0,111.2,13.12,25.74,238.6
"2009-07-23 01:32:00",1086233,2.936,272.1,3.556,0.192,21.07,110.0034,24.9,25.92,21.45,0,111.2,13.12,25.74,234.1
"2009-07-23 01:32:30",1086234,2.83,275,2.591,0.197,21.11,110.0034,24.9,25.91,20.77,0,111.2,13.12,25.74,237.0
"2009-07-23 01:33:00",1086235,3.031,276.8,2.153,0.185,21.03,110.0034,24.9,25.93,21.16,0,111.2,13.12,25.74,238.8
"2009-07-23 01:33:30",1086236,2.974,276.4,3.719,0.203,21.01,110.0034,24.9,25.91,21.7,0,111.2,13.12,25.74,238.4
"2009-07-23 01:34:00",1086237,2.51,280.6,6.642,0.216,20.94,110.0034,24.9,25.93,22.18,0,111.2,13.12,25.74,242.6
"2009-07-23 01:34:30",1086238,2.04,281.4,4.04,0.216,20.98,110.0031,24.9,25.92,22.54,0,111.2,13.12,25.74,243.4
"2009-07-23 01:35:00",1086239,1.97,272.4,4.669,0.114,20.94,110.0034,24.9,25.91,23.09,0,111.2,13.12,25.74,234.4
"2009-07-23 01:35:30",1086240,1.87,281.3,3.395,0.111,20.95,110.0034,24.9,25.91,23.63,0,111.2,13.12,25.74,243.3
"2009-07-23 01:36:00",1086241,2.271,280.1,2.572,0.388,20.98,110.0022,24.9,25.91,23.59,0,111.2,13.12,25.74,242.1
"2009-07-23 01:36:30",1086242,2.427,274.4,3.352,0.173,21.05,110.0011,24.9,25.9,22.84,0,111.2,13.12,25.74,236.4
"2009-07-23 01:37:00",1086243,2.177,273,3.034,0.179,21.02,109.9992,24.89,25.9,23.16,0,111.2,13.12,25.73,235.0
"2009-07-23 01:37:30",1086244,2.524,268.1,5.092,0.123,21.14,109.9994,24.89,25.89,22.58,0,111.2,13.12,25.73,230.1
"2009-07-23 01:38:00",1086245,2.385,267.2,1.761,0.108,21.15,109.9966,24.89,25.91,21.99,0,111.2,13.12,25.72,229.2
"2009-07-23 01:38:30",1086246,2.32,268.8,1.586,0.122,21.1,109.9966,24.89,25.9,22.12,0,111.2,13.12,25.72,230.8
"2009-07-23 01:39:00",1086247,2.274,268.6,2.539,0.07,21.07,109.9963,24.89,25.9,22.48,0,111.2,13.11,25.72,230.6
"2009-07-23 01:39:30",1086248,2.159,264,3.598,0.187,21.05,109.9896,24.87,25.89,22.54,0,111.2,13.11,25.71,226.0
"2009-07-23 01:40:00",1086249,2.006,266.6,3.166,0.136,21.09,109.986,24.86,25.9,23.01,0,111.2,13.11,25.70,228.6
"2009-07-23 01:40:30",1086250,1.929,266.3,1.923,0.072,21.15,109.9823,24.85,25.89,22.99,0,111.2,13.11,25.69,228.3
"2009-07-23 01:41:00",1086251,1.844,263.7,2.402,0.063,21.12,109.9801,24.84,25.89,22.95,0,111.2,13.11,25.68,225.7
"2009-07-23 01:41:30",1086252,1.848,274.6,6.184,0.092,21.22,109.9775,24.84,25.89,23.1,0,111.2,13.11,25.68,236.6
"2009-07-23 01:42:00",1086253,1.583,271.9,2.924,0.192,21.35,109.9728,24.82,25.89,23.01,0,111.2,13.11,25.66,233.9
"2009-07-23 01:42:30",1086254,1.181,269.7,3.786,0.12,21.36,109.9716,24.82,25.88,23.17,0,111.2,13.11,25.66,231.7
"2009-07-23 01:43:00",1086255,0.917,265.7,3.706,0.109,21.32,109.9706,24.82,25.87,23.43,0,111.2,13.11,25.66,227.7
"2009-07-23 01:43:30",1086256,0.717,269.4,2.269,0.064,21.33,109.9691,24.82,25.86,23.64,0,111.2,13.11,25.65,231.4
"2009-07-23 01:44:00",1086257,0.616,261.2,3.204,0.066,21.28,109.9493,24.76,25.85,23.92,0,111.2,13.11,25.60,223.2
"2009-07-23 01:44:30",1086258,0.639,247.6,7.174,0.089,21.3,109.9432,24.75,25.84,24.14,0,111.2,13.12,25.59,209.6
"2009-07-23 01:45:00",1086259,0.369,251,11.22,0.122,21.35,109.942,24.75,25.83,24.24,0,111.2,13.12,25.58,213.0
"2009-07-23 01:45:30",1086260,0.404,220.3,3.346,0.047,21.43,109.9403,24.74,25.79,24.29,0,111.2,13.12,25.58,182.3
"2009-07-23 01:46:00",1086261,0.295,215.5,5.914,0.062,21.43,109.9419,24.75,25.78,24.31,0,111.2,13.12,25.58,177.5
"2009-07-23 01:46:30",1086262,0.42,208.8,3.907,0.094,21.45,109.9292,24.71,25.77,24.37,0,111.2,13.12,25.55,170.8